Location: Unspecified
(0.0000°N, 0.0000°E)
Time: 16:25:07
(UTC+00:00)

KKS-1 - Visible Passes

Search period start: 13 December 2019 00:00
Search period end: 23 December 2019 00:00
Orbit: 637 x 650 km, 98.3° (Epoch: 13 December)

Date Brightness Start Highest point End Pass type
(mag) Time Alt. Az. Time Alt. Az. Time Alt. Az.
13 Dec ? 18:59:41 19° NNE 19:02:42 51° ESE 19:07:04 10° S visible
14 Dec ? 19:24:27 23° N 19:27:09 71° WNW 19:31:38 10° SSW visible
15 Dec ? 19:49:12 19° NNW 19:51:37 31° WNW 19:55:35 10° SW visible
16 Dec ? 18:36:19 11° NE 18:39:48 24° ESE 18:43:25 10° SSE visible
16 Dec ? 20:13:58 11° NW 20:16:04 15° WNW 20:18:35 10° WSW visible
17 Dec ? 19:01:05 18° NNE 19:04:15 53° ESE 19:08:37 10° S visible
18 Dec ? 19:25:51 22° N 19:28:42 69° WNW 19:33:10 10° SSW visible
19 Dec ? 19:50:36 18° NNW 19:53:09 31° WNW 19:57:06 10° SW visible
20 Dec ? 18:37:43 10° NE 18:41:20 25° ESE 18:44:59 10° SSE visible
20 Dec ? 20:15:22 11° NW 20:17:36 14° WNW 20:20:02 10° WSW visible
21 Dec ? 19:02:28 17° NNE 19:05:47 54° ESE 19:10:10 10° S visible
22 Dec ? 19:27:14 20° N 19:30:15 67° WNW 19:34:41 10° SSW visible
